Location: Tomasino Mill
(34.2526°N, 106.6733°W)
Time: 12:51:39
(UTC+00:00)

Daily predictions for brighter satellites

Satellite Brightness Start Highest point End
(mag) Time Altitude Azimuth Time Altitude Azimuth Time Altitude Azimuth
Cosmos 1933 4.5 12:01:33 19° NNE 12:03:55 39° E 12:07:29 10° SSE
Cosmos 990 Rocket 3.9 12:05:00 59° WNW 12:05:38 65° WSW 12:10:47 10° S
Cosmos 2098 Rocket 3.6 12:04:58 24° NNW 12:08:33 71° W 12:14:14 10° S
SJ-11-01 4.2 12:04:52 10° N 12:09:30 62° WNW 12:14:06 10° SSW
CZ-3 Stage 3 4.4 12:06:43 31° W 12:13:54 74° S 13:00:44 10° ESE
COSMO-SKYMED 1 4.0 12:10:36 10° SE 12:14:19 34° ENE 12:18:03 10° N
CZ-3C R/B 3.6 12:12:48 10° SSW 12:16:17 22° SSE 12:26:14 10° ESE
COSMOS 2406 3.1 12:13:24 10° SSW 12:19:03 83° WNW 12:24:46 10° NNE
Cosmos 220 Rocket 3.8 12:25:02 10° SSW 12:28:58 55° WNW 12:32:58 10° N
Cosmos 2082 Rocket 2.8 12:31:41 30° W 12:32:38 31° WNW 12:37:36 10° N
SL-24 R/B - RUBIN 2 3.4 12:31:09 31° NW 12:33:09 74° WSW 12:37:34 10° SSE
SL-8 R/B 3.6 12:32:41 32° NW 12:34:52 83° SW 12:39:37 10° SE
COSMOS 2455 3.1 12:29:40 11° NNW 12:35:27 69° ENE 12:41:25 10° SSE
SL-16 R/B 3.9 12:32:38 10° N 12:37:38 31° ENE 12:42:35 10° ESE
Cosmos 1606 Rocket 3.4 12:33:13 10° N 12:37:39 79° W 12:42:01 10° S
Cosmos 841 Rocket 3.8 12:34:27 10° SW 12:39:23 43° WNW 12:44:23 10° N
Cosmos 1346 Rocket 3.7 12:40:14 10° SW 12:47:31 - N 12:42:28 25° WSW
CZ-4 R/B 4.2 12:44:20 10° N 12:48:36 38° WNW 12:52:50 10° SW
Delta 2 Rocket 2.4 12:49:48 32° WNW 12:51:03 89° NNE 12:54:03 10° ESE
Cosmos 1484 Rocket 2.3 12:49:49 10° NNE 12:53:13 88° WNW 12:56:35 10° SSW
Cosmos 1980 Rocket 3.0 12:57:59 16° NW 13:01:27 29° WSW 13:06:09 10° SSW
IRS-1D 4.4 12:58:18 10° NNW 13:02:25 26° WNW 13:06:36 10° SW
Cosmos 2026 Rocket 3.9 12:56:48 10° SSW 13:02:45 60° W 13:08:44 10° N
Cosmos 1726 Rocket 3.6 13:00:18 10° NNW 13:04:30 51° W 13:08:32 10° S
Cosmos 2369 3.9 12:59:07 10° NNW 13:04:38 53° WSW 13:10:06 10° S
IGS 5A 3.3 13:00:42 10° N 13:04:42 83° WNW 13:08:41 10° SSW
Tiangong -1.3 13:03:55 17° NW 13:06:06 42° NNE 13:09:11 10° E
Cosmos 1898 Rocket 3.7 13:01:13 10° NNW 13:06:17 52° WSW 13:11:23 10° S
OAO 3 Copernicus 4.5 13:06:08 10° WSW 13:11:08 74° SSE 13:16:08 10° E
Cosmos 1626 Rocket 3.9 13:09:06 10° S 13:13:29 69° E 13:17:52 10° NNE
Helios 1A Rocket 3.1 13:13:02 10° SSW 13:16:04 33° W 13:19:08 10° NNW
Cosmos 1892 Rocket 4.3 13:12:20 10° SW 13:16:07 29° WNW 13:19:56 10° NNW
CORIOLIS 4.4 13:15:56 10° NNE 13:21:19 75° ESE 13:26:42 10° S
Cosmos 2151 4.5 13:20:33 10° SSE 13:24:20 39° E 13:28:08 10° NNE
NOSS 3-1 (C) 4.3 13:17:07 10° NNW 13:24:55 86° WSW 13:34:17 10° SSE
Cosmos 2333 Rocket 2.9 13:19:18 10° NNW 13:24:59 59° ENE 13:30:36 10° SE
Cosmos 1092 Rocket 4.3 13:19:38 10° SSW 13:25:36 45° W 13:31:34 10° N
IRIDIUM 104 4.3 13:24:18 10° S 13:29:30 80° W 13:34:44 10° N
NOSS 2-1 (D) 4.0 13:26:34 10° NW 13:30:33 56° WSW 13:36:07 10° SSE
Cosmos 1553 Rocket 4.3 13:24:34 10° N 13:30:59 79° E 13:37:23 10° S
Cosmos 1937 Rocket 3.9 13:27:12 10° NNW 13:31:57 40° WSW 13:36:43 10° S
USA 59 Rocket 0.7 13:29:54 10° NW 13:33:55 47° WSW 13:39:29 10° SSE
Cosmos 2360 Rocket 3.3 13:28:50 10° N 13:34:13 45° ENE 13:39:34 10° SE
ARIANE 5 R/B 3.0 13:29:13 10° NNE 13:34:25 71° ESE 13:39:36 10° S
SJ-12 4.0 13:31:40 10° NNE 13:35:28 75° ESE 13:39:15 10° S
